Location: Great Bardfield
(51.9333°N, 0.4833°E)
Time: 05:36:45
(UTC+00:00)

Daily predictions for brighter satellites

Satellite Brightness Start Highest point End
(mag) Time Altitude Azimuth Time Altitude Azimuth Time Altitude Azimuth
SL-4 R/B 2.9 00:02:04 10° W 00:05:38 29° SSW 00:06:37 26° S
Cosmos 1825 2.0 00:04:51 31° S 00:06:20 67° E 00:09:45 10° NNE
Cosmos 2154 Rocket 4.3 00:07:15 20° SSE 00:11:36 62° E 00:17:48 10° NNE
Cosmos 2297 Rocket 2.2 00:09:02 17° SSW 00:13:26 84° WNW 00:19:09 10° NNE
Okean 1 Rocket 3.0 00:09:06 10° NNW 00:13:29 87° WSW 00:16:03 24° S
NOSS 3-2 (A) 4.4 00:12:22 19° SSE 00:15:01 27° ESE 00:20:00 10° ENE
Cosmos 2219 4.0 00:14:01 20° SSE 00:17:19 37° ESE 00:22:27 10° NE
PSLV R/B 3.8 00:14:32 10° N 00:18:44 63° WNW 00:21:22 21° SSW
Aureole 1 Rocket 4.3 00:17:04 18° SE 00:18:52 25° E 00:22:29 10° NE
ATLAS CENTAUR R/B 4.2 00:21:05 10° NW 00:23:11 15° NNW 00:25:21 10° NNE
Cosmos 1354 Rocket 4.2 00:25:11 18° SW 00:29:11 71° WNW 00:34:31 10° NNE
Cosmos 1606 4.5 00:27:11 10° NNE 00:30:11 24° ENE 00:33:10 10° SE
Resurs 1-4 Rocket 4.4 00:30:07 10° NE 00:32:54 14° E 00:35:40 10° ESE
H-2A R/B 2.2 00:29:02 10° N 00:33:18 69° WNW 00:35:54 22° SSW
Cosmos 2084 Rocket 3.3 00:31:32 19° SW 00:34:29 84° SE 00:38:37 10° NE
Cosmos 1975 Rocket 3.9 00:37:42 18° SSE 00:40:33 43° E 00:44:43 10° NNE
NOSS 3 (A) 4.3 00:42:10 39° N 00:42:10 39° N 00:43:31 10° NE
Cosmos 292 Rocket 4.4 00:40:12 21° S 00:43:06 46° ESE 00:47:42 10° NE
Cosmos 2263 Rocket 2.8 00:42:06 19° S 00:45:42 43° ESE 00:50:57 10° NE
BlueWalker 3 1.9 00:43:42 10° W 00:47:28 78° N 00:51:13 10° ENE
Orbus 7S? 2.8 00:45:34 10° WNW 00:48:14 74° NNE 00:51:33 10° ESE
BREEZE-M DEB (TANK) 3.8 00:45:41 10° WSW 00:48:45 65° SSE 00:57:17 10° E
Cosmos 1455 Rocket 3.0 00:45:29 10° NNW 00:49:56 85° W 00:52:57 20° S
Cosmos 332 Rocket 4.1 00:48:13 17° SW 00:51:52 62° WNW 00:56:45 10° NNE
Cosmos 2074 Rocket 4.3 00:49:56 18° SSW 00:54:36 59° WNW 01:00:45 10° N
Cosmos 1680 Rocket 3.9 00:50:59 10° NNW 00:56:10 63° ENE 01:01:20 10° SE
Cosmos 2341 Rocket 4.4 00:56:40 15° SSE 01:01:41 59° E 01:07:48 10° NNE
Cosmos 1818 3.5 00:56:29 10° NW 01:02:01 85° SW 01:07:29 10° SE
Helios 1A Rocket 2.7 01:02:09 19° SSE 01:04:47 87° WSW 01:08:38 10° NNW
Cosmos 1025 Rocket 3.2 01:02:30 21° SSW 01:05:17 61° WNW 01:09:36 10° N
USA 234 4.0 01:00:13 10° E 01:06:37 58° N 01:13:01 10° WNW
Cosmos 1461 4.0 01:06:44 18° SSE 01:08:46 29° ESE 01:12:10 10° ENE
COSMOS 2455 4.1 01:03:58 10° WSW 01:09:35 39° NW 01:15:14 10° NNE
Cosmos 990 Rocket 4.1 01:08:07 17° SW 01:12:01 68° WNW 01:17:10 10° NNE
TIMED 4.5 01:10:13 21° SSW 01:13:04 83° ESE 01:17:26 10° NNE
Cosmos 1892 4.5 01:11:24 12° WSW 01:13:43 20° WNW 01:16:23 10° NNW
SL-19 R/B 3.6 01:13:37 10° NNE 01:16:41 76° ESE 01:18:11 25° S
CENTAUR R/B 2.6 01:11:48 15° SW 01:16:53 89° SE 01:24:17 10° NE
In-Cosmos 22 Rocket 4.3 01:14:28 18° S 01:18:58 87° ESE 01:24:51 10° NNE
IDEFIX/ARIANE 42P 3.5 01:16:04 10° NNE 01:21:03 41° E 01:25:41 11° SSE
SL-16 R/B 2.8 01:17:20 10° NW 01:22:35 39° WSW 01:26:33 16° S
Cosmos 1869 3.0 01:23:22 10° NNW 01:27:06 80° W 01:29:53 17° S
Cosmos 1603 4.2 01:21:53 10° NNW 01:27:38 63° NE 01:33:19 10° SE
Cosmos 2237 Rocket 4.2 01:26:09 10° WNW 01:28:13 12° W 01:30:17 10° WSW
CZ-2C R/B 4.5 01:24:46 10° NNE 01:29:38 32° E 01:34:15 10° SSE
GEOS 3 Rocket 3.8 01:27:40 10° NE 01:32:51 70° NW 01:37:52 10° WSW
CZ-4C R/B 3.5 01:30:56 10° W 01:35:41 39° NNW 01:41:42 10° NE
Cosmos 2082 3.7 01:31:20 16° SSW 01:35:53 88° ESE 01:41:33 10° NNE
CZ-2D R/B 3.1 01:31:31 10° NNE 01:36:35 40° E 01:41:31 10° SSE
Cosmos 1943 3.1 01:31:05 10° NNW 01:36:44 81° WSW 01:42:20 10° SSE
Cosmos 2218 Rocket 4.1 01:31:20 14° S 01:36:48 81° E 01:43:00 10° NNE
Cosmos 2227 Rocket 3.1 01:32:13 10° WSW 01:37:38 43° NW 01:43:03 10° NNE
CZ-2C R/B 2.9 01:33:13 10° SSE 01:38:29 72° ENE 01:43:55 10° NNW
Cosmos 1437 Rocket 4.2 01:35:48 10° SSE 01:39:09 29° E 01:42:28 10° NNE
Cosmos 1825 4.5 01:39:39 10° W 01:40:58 12° WNW 01:42:17 10° NW
Cosmos 2366 rocket 4.0 01:37:03 14° S 01:42:34 90° W 01:48:50 10° N
Cosmos 372 Rocket 4.0 01:40:51 16° SSW 01:45:07 85° WNW 01:50:23 10° NNE
Cosmos 494 Rocket 4.4 01:40:36 10° NNW 01:45:50 66° ENE 01:51:03 10° SE
MOZ.5/SAFIR/RUBIN 5/SL-8 4.0 01:43:48 14° S 01:47:43 54° W 01:52:17 10° NNW
Meteor 1-11 4.5 01:49:40 14° SSW 01:54:39 65° WNW 02:00:27 10° N
NPP 3.8 01:50:39 10° NNE 01:56:04 75° ESE 02:01:12 11° S
ADEOS II 3.1 01:53:01 10° NNE 01:58:01 42° E 02:02:58 10° SSE
Cosmos 2297 Rocket 4.1 01:53:50 10° W 01:58:21 24° NW 02:02:51 10° NNE
Cosmos 2228 3.2 01:55:38 10° NNW 01:59:54 59° W 02:03:53 11° S
Cosmos 2219 3.9 01:55:55 10° SW 02:01:22 48° NW 02:06:49 10° NNE
Cosmos 1544 Rocket 4.1 01:57:25 10° NNW 02:01:39 44° W 02:05:22 13° SSW
Aureole 1 Rocket 4.0 01:58:23 11° WSW 02:01:45 37° NW 02:06:13 10° NNE
ATLAS CENTAUR R/B 4.4 02:00:32 10° NNW 02:02:18 13° N 02:04:07 10° NE
Cosmos 1937 Rocket 3.7 01:59:45 13° SW 02:04:26 70° WNW 02:09:41 10° NNE
Cosmos 1606 3.6 02:01:44 10° NNW 02:04:52 29° W 02:07:22 14° SSW
NOSS 3-2 (A) 3.5 01:59:43 10° SW 02:05:07 73° NW 02:11:41 10° NE
H-2A R/B 3.4 02:03:48 10° NNE 02:07:48 87° ESE 02:11:32 12° SSW
ALOS 3.8 02:04:30 10° NNE 02:08:34 30° E 02:12:37 10° SSE
Cosmos 1898 Rocket 4.0 02:04:35 11° SW 02:09:20 50° WNW 02:14:24 10° NNE
SL-16 R/B 2.9 02:04:24 10° SSE 02:10:36 70° ENE 02:16:49 10° NNW
Cosmos 2227 4.4 02:05:48 12° SSW 02:11:09 70° ESE 02:16:55 10° NE
NOSS 3-2 (C) 3.4 02:06:43 12° SSW 02:11:36 73° SE 02:18:01 10° NE
SL-8 Rocket 4.4 02:07:58 12° SSW 02:13:33 51° WNW 02:19:36 10° N
Resurs 1-4 Rocket 2.2 02:08:13 10° NNE 02:13:33 81° ESE 02:18:50 10° SSW
Cosmos 1812 3.7 02:19:23 10° N 02:22:50 43° ENE 02:26:15 10° SSE
BlueWalker 3 2.0 02:22:00 10° WNW 02:25:47 80° NNE 02:29:32 10° E
Cosmos 1727 Rocket 4.2 02:23:22 10° NNW 02:29:35 59° W 02:35:47 10° S
Cosmos 2263 Rocket 3.0 02:24:22 10° WSW 02:29:40 42° NW 02:34:58 10° NNE
Cosmos 921 Rocket 3.1 02:29:50 10° NNW 02:34:01 57° WSW 02:38:06 10° S
COSMOS 2441 4.4 02:30:08 10° NNE 02:34:58 86° WNW 02:39:48 10° SSW
Cosmos 1606 Rocket 3.6 02:32:45 10° NNW 02:37:12 66° W 02:41:34 10° S
Cosmos 724 4.2 02:37:59 10° NW 02:43:47 73° SW 02:49:35 10° SSE
Cosmos 1461 3.5 02:43:01 10° WSW 02:46:48 44° NW 02:50:32 10° NNE
Cosmos 1536 Rocket 4.3 02:43:46 10° SW 02:47:57 40° WNW 02:52:08 10° N
Cosmos 1844 Rocket 2.8 02:43:08 10° SSW 02:48:43 78° ESE 02:54:19 10° NNE
USA 234 3.5 02:42:50 10° ESE 02:49:24 83° NNE 02:55:59 10° WNW
